Rbgn^[z[y[W
メイン
   新天体発見情報
     Comet P/2023 C1 = 2016 C3 (Jahn)
投稿するにはまず登録を

フラット表示 前のトピック | 次のトピック
投稿者 スレッド
佐藤裕久
投稿日時: 2023-4-12 14:17
モデレータ
登録日: 2005-6-12
居住地: 日本
投稿: 2686
オンライン
Comet P/2023 C1 = 2016 C3 (Jahn)

Jost Jahn (Amrum, ドイツ)の通報によると、2月14日、Observatoire de Haute Provence
(Haute Provence天文台)にあるTuebingen大学の60-cm ROTAT望遠鏡による定期観測プロ
グラムの遠隔操作から得た画像から彗星を発見した。
Jahnには4週間後まで、2月14日発見画像を見る時間がなかった。彼が彗星の外観(少し拡散
した弱い10"コマ)に気づき、小惑星センターのPCCP webpageに掲載を依頼した。
2021年10月11日、HaleakalaにあるPan-STARRS1 1.8-m Ritchey-Chretien反射望遠鏡(w光度
が22.6-22.9等)、2023年1月19日、紫山天文台のXuYi観測所(r光度20.2-20.3等)と20232月
1日、Mt Lemmon (1.5-m反射望遠鏡, 19.8-20.0等)の一夜観測が小惑星センターの"isolated 
tracklet file" で確認された。
D. Rankin (アリゾナ大学月惑星研究所, LPL)によると、2023年2月1日の画像の検査で東西
に伸びた約7".8のコマが見えた。また、Mt Lemmonの画像は、約8"のコマ(20.5-21.0)等)
が見えた時、3月18.4日UTまでに少し薄れた。

彗星機能の報告は次のとおり、

OC   Date        Reporter           Coma    Tail    PA          Exposures
F52  2022-12-02  R. Weryk           0".2     10"    290           4x45s
K88  2023-01-25  K. Sarneczky       4"        7"    280          15x25s
G96  2023-02-01  D. Rankin          7".8
G96  2023-03-18  D. Rankin          8"

発見位置は次のとおり、

     2023 UT             R.A. (2000) Decl.       Mag.   Observer
     Feb. 14.94047    9 05 21.36   +32 42 36.3   19.1   Jahn
          14.95764    9 05 20.45   +32 42 33.3   19.2     "
          14.97481    9 05 19.51   +32 42 30.5   19.4     "
          15.00914    9 05 17.65   +32 42 25.7   20.6     "
          15.04313    9 05 15.82   +32 42 21.1   19.8     "
          15.06126    9 05 14.84   +32 42 17.9   19.8     "
          15.07937    9 05 13.87   +32 42 14.6   19.2     "

Pan-STARRS1による発見前の観測は次のとおり、

     2013 UT             R.A. (2000) Decl.       Mag.
     Nov. 22.05504   23 31 44.97   - 1 25 58.3   24.3
          23.08392   23 31 45.95   - 1 23 50.4   23.6

     2014 UT             R.A. (2000) Decl.       Mag.
     Dec. 13.45837    5 01 31.51   +43 22 51.2
          13.47168    5 01 30.69   +43 22 51.1
          13.48501    5 01 29.82   +43 22 50.8   21.5

     2016 UT             R.A. (2000) Decl.       Mag.
     Feb. 10.55564   12 50 06.88   - 4 28 18.3   23.9
     Apr.  9.14433   12 12 40.43   - 3 59 36.7   23.3
          10.15543   12 11 57.58   - 3 58 13.0   22.7

MPCの楕円軌道要素、位置推算表は次のとおり、

Orbital elements:
    P/2023 C1 (Jahn)                                                            
Epoch 2023 Feb. 25.0 TT = JDT 2460000.5                                         
T 2022 Oct. 30.09071 TT                                 Rudenko                 
q   2.6341546            (2000.0)            P               Q                  
n   0.13019678     Peri.  104.78499     -0.28111132     -0.95965299             
a   3.8553981      Node     1.58656     +0.76468564     -0.22809675             
e   0.3167620      Incl.   13.62901     +0.57985542     -0.16443239             
P   7.57                                                                        
From 61 observations 2013 Nov. 22-2023 Mar. 21, mean residual 0".5.             
                                                                                
Ephemeris:
Date    TT    R. A. (2000) Decl.     Delta      r    Elong.  Phase   m1
2023 02 22    08 59 38.1 +32 19 26   1.8098  2.7204   151.5    10.0  19.6
...
2023 03 09    08 51 10.2 +31 02 45   1.9308  2.7434   137.2    14.2  19.8
...
2023 03 17    08 49 06.8 +30 10 11   2.0137  2.7566   129.6    16.1  19.9
...
2023 03 23    08 48 44.2 +29 26 57   2.0828  2.7669   124.1    17.4  20.0
2023 03 24    08 48 46.3 +29 19 29   2.0949  2.7687   123.1    17.5  20.0
2023 03 25    08 48 49.9 +29 11 57   2.1070  2.7704   122.2    17.7  20.0
...
2023 03 31    08 49 44.7 +28 25 27   2.1827  2.7813   116.9    18.7  20.1
...
2023 04 08    08 52 20.4 +27 20 42   2.2897  2.7962   110.1    19.6  20.3
...
2023 04 23    09 00 51.3 +25 13 09   2.5038  2.8258    98.1    20.6  20.5

(MPEC 2023-F121、CBET 5237)

フラット表示 前のトピック | 次のトピック

題名 投稿者 日時
 » Comet P/2023 C1 = 2016 C3 (Jahn) 佐藤裕久 2023-4-12 14:17

投稿するにはまず登録を
 
© 1999 Tsutomu Seki.